This is the latest recevied weather packets stored in our database for station/object N4CRH-13. If no packets are shown the sender has not sent any weather packets the latest 1 day(s).
| Time | Temp. | Humidity | Pressure | Rain* | Wind** | Luminosity | Snow |
|---|---|---|---|---|---|---|---|
| 1778099629 | -2.22° C | 99% | 1296.5 hPa | 0 mm | - | 185 W/m² | - |
| 1778099326 | -2.22° C | 99% | 1296.8 hPa | 0 mm | - | 205 W/m² | - |
| 1778099023 | -2.22° C | 99% | 1296.7 hPa | 0 mm | - | 186 W/m² | - |
| 1778098417 | -1.67° C | 99% | 1296.7 hPa | 0 mm | - | 169 W/m² | - |
| 1778096900 | -1.67° C | 99% | 1296.8 hPa | 0 mm | - | 394 W/m² | - |
| 1778095991 | -1.11° C | 99% | 1296.7 hPa | 0 mm | - | 524 W/m² | - |
| 1778095384 | -1.67° C | 99% | 1296.8 hPa | 0 mm | - | 284 W/m² | - |
| 1778094171 | -1.67° C | 99% | 1296.7 hPa | 0 mm | - | 225 W/m² | - |
| 1778093868 | -1.67° C | 99% | 1296.9 hPa | 0 mm | - | 291 W/m² | - |
| 1778092656 | -2.22° C | 99% | 1296.8 hPa | 0 mm | - | 263 W/m² | - |
| 1778092049 | -1.67° C | 99% | 1297.1 hPa | 0 mm | - | 173 W/m² | - |
| 1778091746 | -2.22° C | 99% | 1297 hPa | 0 mm | - | 213 W/m² | - |
| 1778091141 | -2.22° C | 99% | 1296.7 hPa | 0 mm | - | 223 W/m² | - |
| 1778090838 | -2.22° C | 99% | 1297 hPa | 0 mm | - | 207 W/m² | - |
| 1778089630 | -2.22° C | 99% | 1296.5 hPa | 0 mm | - | 157 W/m² | - |
| 1778088721 | -2.22° C | 99% | 1296.7 hPa | 0 mm | - | 167 W/m² | - |
| 1778088418 | -1.67° C | 99% | 1296.5 hPa | 0 mm | - | 141 W/m² | - |
| 1778087207 | -1.67° C | 99% | 1296 hPa | 0 mm | - | 237 W/m² | - |
| 1778086602 | -1.11° C | 99% | 1295.7 hPa | 0 mm | - | 184 W/m² | - |
| 1778086298 | -1.67° C | 99% | 1295.7 hPa | 0 mm | - | 212 W/m² | - |
| 1778085995 | -2.22° C | 99% | 1295.9 hPa | 0 mm | - | 179 W/m² | - |
| 1778085693 | -2.22° C | 99% | 1296 hPa | 0 mm | - | 173 W/m² | - |
| 1778085089 | -2.22° C | 99% | 1295.8 hPa | 0 mm | - | 144 W/m² | - |
| 1778049743 | -2.22° C | 99% | 1292.8 hPa | 0 mm | - | 0 W/m² | - |
| 1778049441 | -2.22° C | 99% | 1292.8 hPa | 0 mm | - | 0 W/m² | - |
* Rain latest hour (hover to see other rain measurements)
** Current wind speed in m/s (hover to see current wind gust speed)